Погода в Ледмозере

Россия / Республика Карелия     64°15′02″N   32°01′43″E
темп.,
°C
ветер,
м/с
пор.,
м/с
влажн.,
%
обл.,
%
осадки,
мм/ч
давл.,
гПа
погр.,
м
18 мая, вт
вт1800:00+13юв3118590 0.0 1012299
03:00+12юв41386100 0.0 1011385
06:00+14юв4138299 0.0 1009484
09:00+16юв51179100 0.4 1008744
12:00+20ююв5863100 0.0 10071046
15:00+24ю585068 0.1 10052000
18:00+18ююв258447 7.1 1006342
21:00+16ююз1194100 8.2 100521
19 мая, ср
ср1900:00+16ююв2796100 3.1 1005275
03:00+15ю2598100 3.1 1006131
06:00+15ююв1495100 0.0 1006155
09:00+18ююв358095 0.1 1006487
12:00+22ююв4759100 0.0 1005998
15:00+26ююв6134386 0.0 10042946
18:00+23ююв5125464 1.1 10011148
21:00+15ююв41186100 5.5 1002293
20 мая, чт
чт2000:00+15ю41096100 6.0 1000458
03:00+13ю51390100 6.4 1002738
06:00+14ю613859 0.1 1002954
09:00+13ююз71376100 0.1 1004992
12:00+13ююз7116859 0.0 1005991
15:00+15юз696156 0.0 10061149
18:00+13зюз466978 0.0 1006974
21:00+11з2581100 0.0 1006390
21 мая, пт
пт2100:00+9зсз1288100 0.0 100561
03:00+9ссз1287100 0.0 1004153
06:00+8ссз2495100 1.8 1002190
09:00+9с3492100 1.9 1001260
12:00+10св2288100 0.0 1001382
15:00+12св2284100 0.1 999526
18:00+10сз4694100 1.4 998458
21:00+8зсз41092100 3.6 999547
22 мая, сб
сб2200:00+7з51091100 0.3 1000664
03:00+6з4991100 0.4 1001687
06:00+5з51090100 0.0 1003764
09:00+7з597221 0.0 1005841
12:00+12з685221 0.0 10071564
15:00+14зюз5748100 0.0 10081822
18:00+14юз4856100 0.0 10081189
21:00+12ююз51061100 0.1 1009916